Flood From: 18-02-2018 10:00 Until: 19-02-2018 06:00 warning for: Flood Level: Yellow info button

Although rather usual in this region, locally or potentially dangerous phenomena are expected. (such as local winds, summer thunderstorms, rising streams or high waves) Be aware and pay attention to the latest weather updates, especially if you carry out activities exposed to weather or close to a stream or shoreline. 


Meteo18 Weather Cam more information Meteo18 Weather Cam


Thunder radar more information blitzortung!


Rain radar more information rain snow radar


Visit our other weather sites:

Template documentation
and downloads

And another site



Weather Underground History page Text

Daily Summary for May 18, 2017 Units:  Metric    English   Both
« Previous Day
Next Day »
Daily Weekly Monthly Yearly Custom
  High: Low: Average:
Temperature: -17.8 °C -12 °C -8.9 °C
Dew Point: -17.8 °C -12.5 °C -10.1 °C
Humidity: Humidity % 65 % 88 %
Wind Speed: 0 km/h 0 km/h 8.7 km/h
Wind Gust: 0 km/h - -
Wind:- - SSW
Pressure: 0 hPa 34107.2 hPa -
Precipitation: 586.74 mm    
Historical Graphs
 
 
Tabular Data for May 18, 2017
Time Temperature Dew Point Pressure Wind Wind Speed Wind Gust Humidity Rainfall Rate (Hourly)
-17.8 °C -17.8 °C 0 hPa Calm     Humidity % 0 mm
00:02 -7.6 °C -9.5 °C 34384.8 hPa SW 12.9 km/h 28.5 km/h 80 % 0 mm
00:07 -7.6 °C -9.4 °C 34384.8 hPa West 5.1 km/h 20.8 km/h 81 % 0 mm
00:12 -7.7 °C -9.4 °C 34384.8 hPa West 2.6 km/h 18.2 km/h 82 % 0 mm
00:17 -7.7 °C -9.4 °C 34384.8 hPa WSW 2.6 km/h 18.2 km/h 82 % 0 mm
00:22 -7.7 °C -9.3 °C 34395 hPa SW 5.1 km/h 18.2 km/h 83 % 0 mm
00:32 -7.7 °C -9.2 °C 34395 hPa SW 12.9 km/h 12.9 km/h 84 % 0 mm
00:42 -8 °C -9.1 °C 34405.1 hPa SSW 18.2 km/h 20.8 km/h 88 % 7.62 mm
00:47 -8.2 °C -9.2 °C 34405.1 hPa WSW 23.3 km/h 28.5 km/h 90 % 12.7 mm
00:52 -8.4 °C -9.2 °C 34395 hPa SSW 12.9 km/h 28.5 km/h 91 % 45.72 mm
00:57 -8.4 °C -9.2 °C 34395 hPa WSW 5.1 km/h 28.5 km/h 92 % 63.5 mm
01:02 -8.4 °C -9.1 °C 34395 hPa SW 12.9 km/h 28.5 km/h 93 % 76.2 mm
01:07 -8.5 °C -9.1 °C 34395 hPa SW 5.1 km/h 23.3 km/h 93 % 83.82 mm
01:12 -8.5 °C -9.1 °C 34384.8 hPa Calm   18.2 km/h 93 % 83.82 mm
01:22 -8.5 °C -9.1 °C 34371.3 hPa SW 2.6 km/h 12.9 km/h 94 % 91.44 mm
01:27 -8.5 °C -9.1 °C 34384.8 hPa SW 5.1 km/h 12.9 km/h 94 % 91.44 mm
01:32 -8.5 °C -9.1 °C 34384.8 hPa SW 2.6 km/h 12.9 km/h 94 % 91.44 mm
01:37 -8.5 °C -9.1 °C 34384.8 hPa SW 15.6 km/h 15.6 km/h 94 % 91.44 mm
01:42 -8.5 °C -9.1 °C 34384.8 hPa WSW 7.7 km/h 20.8 km/h 94 % 83.82 mm
01:47 -8.5 °C -8.9 °C 34384.8 hPa SW 10.3 km/h 20.8 km/h 95 % 58.42 mm
01:52 -8.6 °C -9 °C 34384.8 hPa SW 7.7 km/h 20.8 km/h 95 % 38.1 mm
01:57 -8.6 °C -9.1 °C 34384.8 hPa SSE 10.3 km/h 20.8 km/h 95 % 20.32 mm
02:02 -8.6 °C -9.1 °C 34384.8 hPa SW 18.2 km/h 23.3 km/h 95 % 12.7 mm
02:12 -8.6 °C -9.1 °C 34384.8 hPa SW 12.9 km/h 25.9 km/h 95 % 7.62 mm
02:17 -8.6 °C -9.1 °C 34384.8 hPa SW 10.3 km/h 25.9 km/h 95 % 0 mm
02:22 -8.6 °C -9.1 °C 34384.8 hPa South 5.1 km/h 23.3 km/h 95 % 0 mm
02:27 -8.6 °C -9.1 °C 34384.8 hPa SSW 12.9 km/h 23.3 km/h 95 % 0 mm
02:32 -8.7 °C -9.1 °C 34384.8 hPa SSW 5.1 km/h 18.2 km/h 95 % 0 mm
02:37 -8.7 °C -9.1 °C 34384.8 hPa SSW 5.1 km/h 18.2 km/h 95 % 0 mm
02:42 -8.7 °C -9.1 °C 34371.3 hPa SW 10.3 km/h 20.8 km/h 95 % 7.62 mm
02:47 -8.7 °C -9.2 °C 34371.3 hPa SSW 15.6 km/h 20.8 km/h 95 % 7.62 mm
02:52 -8.7 °C -9.2 °C 34371.3 hPa SW 7.7 km/h 23.3 km/h 95 % 7.62 mm
02:57 -8.7 °C -9.2 °C 34371.3 hPa SW 18.2 km/h 23.3 km/h 95 % 12.7 mm
03:02 -8.8 °C -9.2 °C 34371.3 hPa SW 7.7 km/h 23.3 km/h 95 % 12.7 mm
03:07 -8.8 °C -9.2 °C 34371.3 hPa SSE 7.7 km/h 23.3 km/h 95 % 12.7 mm
03:12 -8.8 °C -9.2 °C 34371.3 hPa SSW 7.7 km/h 23.3 km/h 95 % 12.7 mm
03:17 -8.8 °C -9.1 °C 34371.3 hPa SW 5.1 km/h 20.8 km/h 96 % 12.7 mm
03:22 -8.8 °C -9.1 °C 34371.3 hPa South 5.1 km/h 18.2 km/h 96 % 12.7 mm
03:27 -8.8 °C -9.1 °C 34371.3 hPa SSW 2.6 km/h 18.2 km/h 96 % 20.32 mm
03:32 -8.8 °C -9.2 °C 34371.3 hPa WSW 7.7 km/h 18.2 km/h 96 % 20.32 mm
03:37 -8.8 °C -9.2 °C 34384.8 hPa West 10.3 km/h 18.2 km/h 96 % 25.4 mm
03:42 -8.8 °C -9.2 °C 34384.8 hPa SW 7.7 km/h 18.2 km/h 96 % 25.4 mm
03:47 -8.8 °C -9.2 °C 34371.3 hPa West 7.7 km/h 18.2 km/h 96 % 25.4 mm
03:52 -8.8 °C -9.3 °C 34371.3 hPa WSW 15.6 km/h 18.2 km/h 95 % 25.4 mm
03:57 -8.9 °C -9.3 °C 34371.3 hPa SW 2.6 km/h 18.2 km/h 95 % 20.32 mm
04:02 -8.9 °C -9.3 °C 34371.3 hPa SW 7.7 km/h 18.2 km/h 95 % 20.32 mm
04:07 -8.9 °C -9.4 °C 34371.3 hPa SW 10.3 km/h 20.8 km/h 95 % 20.32 mm
04:12 -8.9 °C -9.4 °C 34371.3 hPa Calm   20.8 km/h 95 % 12.7 mm
04:17 -8.9 °C -9.4 °C 34371.3 hPa SSW 5.1 km/h 20.8 km/h 95 % 12.7 mm
04:22 -8.9 °C -9.4 °C 34371.3 hPa SW 10.3 km/h 20.8 km/h 95 % 12.7 mm
04:27 -8.9 °C -9.4 °C 34371.3 hPa WSW 2.6 km/h 15.6 km/h 95 % 12.7 mm
04:32 -8.9 °C -9.4 °C 34371.3 hPa WSW 2.6 km/h 15.6 km/h 95 % 7.62 mm
04:37 -8.9 °C -9.4 °C 34371.3 hPa Calm   15.6 km/h 95 % 12.7 mm
04:42 -8.9 °C -9.4 °C 34371.3 hPa WNW 5.1 km/h 10.3 km/h 95 % 7.62 mm
04:47 -9.1 °C -9.6 °C 34371.3 hPa West 7.7 km/h 10.3 km/h 94 % 7.62 mm
04:52 -9.2 °C -9.7 °C 34371.3 hPa WNW 10.3 km/h 10.3 km/h 94 % 7.62 mm
04:57 -9.2 °C -9.8 °C 34371.3 hPa West 2.6 km/h 15.6 km/h 94 % 7.62 mm
05:02 -9.3 °C -9.8 °C 34371.3 hPa Calm   15.6 km/h 94 % 7.62 mm
05:12 -9.3 °C -9.8 °C 34371.3 hPa Calm   15.6 km/h 94 % 12.7 mm
05:17 -9.3 °C -9.8 °C 34371.3 hPa Calm   7.7 km/h 94 % 12.7 mm
05:22 -9.3 °C -9.8 °C 34371.3 hPa Calm   7.7 km/h 94 % 12.7 mm
05:32 -9.3 °C -9.8 °C 34371.3 hPa Calm   2.6 km/h 94 % 12.7 mm
05:37 -9.3 °C -9.9 °C 34371.3 hPa Calm   2.6 km/h 94 % 12.7 mm
05:42 -9.4 °C -9.9 °C 34371.3 hPa WNW 2.6 km/h 2.6 km/h 94 % 12.7 mm
05:47 -9.4 °C -10 °C 34371.3 hPa SW 2.6 km/h 7.7 km/h 93 % 20.32 mm
05:52 -9.4 °C -10.1 °C 34371.3 hPa Calm   7.7 km/h 93 % 20.32 mm
06:02 -9.6 °C -10.2 °C 34371.3 hPa Calm   7.7 km/h 93 % 25.4 mm
06:12 -9.6 °C -10.2 °C 34371.3 hPa Calm   5.1 km/h 93 % 25.4 mm
06:17 -9.6 °C -10.2 °C 34371.3 hPa Calm   2.6 km/h 93 % 25.4 mm
06:22 -9.5 °C -10.1 °C 34371.3 hPa Calm   2.6 km/h 93 % 25.4 mm
06:32 -9.5 °C -10.1 °C 34371.3 hPa Calm     94 % 20.32 mm
06:37 -9.4 °C -10 °C 34371.3 hPa Calm     94 % 12.7 mm
06:42 -9.4 °C -10 °C 34371.3 hPa Calm     94 % 12.7 mm
06:47 -9.5 °C -10.1 °C 34371.3 hPa SW 2.6 km/h 10.3 km/h 94 % 12.7 mm
06:57 -9.6 °C -10.2 °C 34371.3 hPa SSW 5.1 km/h 10.3 km/h 94 % 12.7 mm
07:02 -9.7 °C -10.2 °C 34371.3 hPa SSW 2.6 km/h 10.3 km/h 94 % 12.7 mm
07:12 -9.7 °C -10.1 °C 34371.3 hPa Calm   10.3 km/h 95 % 20.32 mm
07:17 -9.7 °C -10.1 °C 34371.3 hPa Calm   7.7 km/h 95 % 33.02 mm
07:22 -9.6 °C -10.1 °C 34371.3 hPa Calm   7.7 km/h 95 % 38.1 mm
07:32 -9.6 °C -10.1 °C 34371.3 hPa Calm     95 % 38.1 mm
07:42 -9.7 °C -10.1 °C 34371.3 hPa Calm     95 % 45.72 mm
07:52 -9.7 °C -10.1 °C 34371.3 hPa Calm     95 % 45.72 mm
07:57 -9.7 °C -10.1 °C 34361.1 hPa Calm     95 % 50.8 mm
08:02 -9.7 °C -10.1 °C 34361.1 hPa Calm     95 % 58.42 mm
08:12 -9.7 °C -10.1 °C 34371.3 hPa Calm     95 % 58.42 mm
08:17 -9.7 °C -10.1 °C 34361.1 hPa Calm     95 % 58.42 mm
08:27 -9.7 °C -10.1 °C 34371.3 hPa Calm     95 % 58.42 mm
08:32 -9.7 °C -10.1 °C 34371.3 hPa Calm     95 % 58.42 mm
08:37 -9.7 °C -10.1 °C 34371.3 hPa Calm     95 % 58.42 mm
08:47 -9.6 °C -9.9 °C 34371.3 hPa Calm     96 % 58.42 mm
08:52 -9.6 °C -9.9 °C 34371.3 hPa Calm     96 % 58.42 mm
09:02 -9.6 °C -10.1 °C 34371.3 hPa Calm     95 % 76.2 mm
09:12 -9.7 °C -10 °C 34371.3 hPa Calm     96 % 76.2 mm
09:17 -9.6 °C -9.9 °C 34361.1 hPa Calm   2.6 km/h 96 % 76.2 mm
09:22 -9.6 °C -9.9 °C 34361.1 hPa Calm   2.6 km/h 96 % 76.2 mm
09:32 -9.5 °C -9.8 °C 34361.1 hPa Calm     96 % 71.12 mm
09:42 -9.4 °C -9.8 °C 34361.1 hPa Calm     96 % 63.5 mm
09:47 -9.4 °C -9.7 °C 34361.1 hPa Calm     96 % 58.42 mm
09:52 -9.4 °C -9.7 °C 34361.1 hPa Calm     96 % 58.42 mm
10:02 -9.4 °C -9.7 °C 34361.1 hPa Calm     96 % 38.1 mm
10:12 -9.4 °C -9.7 °C 34361.1 hPa Calm   5.1 km/h 96 % 12.7 mm
10:17 -9.3 °C -9.7 °C 34361.1 hPa Calm   5.1 km/h 96 % 7.62 mm
10:22 -9.4 °C -9.7 °C 34347.6 hPa Calm   2.6 km/h 96 % 7.62 mm
10:32 -9.4 °C -9.7 °C 34347.6 hPa Calm   5.1 km/h 96 % 0 mm
10:42 -9.3 °C -9.7 °C 34347.6 hPa Calm   7.7 km/h 96 % 0 mm
10:47 -9.2 °C -9.6 °C 34347.6 hPa Calm   5.1 km/h 96 % 0 mm
10:52 -9.1 °C -9.6 °C 34347.6 hPa Calm   5.1 km/h 95 % 0 mm
10:57 -9.2 °C -9.6 °C 34347.6 hPa Calm   5.1 km/h 95 % 0 mm
11:02 -9.1 °C -9.5 °C 34347.6 hPa Calm   5.1 km/h 95 % 0 mm
11:12 -8.9 °C -9.5 °C 34337.4 hPa Calm   5.1 km/h 94 % 0 mm
11:17 -8.9 °C -9.5 °C 34337.4 hPa ENE 5.1 km/h 5.1 km/h 94 % 0 mm
11:22 -8.9 °C -9.6 °C 34337.4 hPa Calm   7.7 km/h 93 % 0 mm
11:32 -8.8 °C -9.6 °C 34327.3 hPa Calm   7.7 km/h 92 % 0 mm
11:42 -8.8 °C -9.6 °C 34327.3 hPa ENE 2.6 km/h 7.7 km/h 91 % 0 mm
11:52 -8.7 °C -9.5 °C 34327.3 hPa ENE 2.6 km/h 7.7 km/h 91 % 0 mm
12:02 -8.4 °C -9.2 °C 34313.7 hPa South 2.6 km/h 10.3 km/h 91 % 0 mm
12:07 -8.2 °C -9.3 °C 34313.7 hPa Calm   7.7 km/h 88 % 0 mm
12:12 -8.1 °C -9.2 °C 34313.7 hPa ENE 2.6 km/h 7.7 km/h 88 % 0 mm
12:17 -8.1 °C -9.3 °C 34313.7 hPa Calm   7.7 km/h 87 % 0 mm
12:22 -8.1 °C -9.2 °C 34303.6 hPa ENE 2.6 km/h 5.1 km/h 88 % 0 mm
12:32 -8.1 °C -9.1 °C 34303.6 hPa ENE 10.3 km/h 10.3 km/h 89 % 0 mm
12:42 -8.1 °C -9.1 °C 34303.6 hPa SE 5.1 km/h 12.9 km/h 90 % 0 mm
12:47 -7.9 °C -8.9 °C 34303.6 hPa East 5.1 km/h 12.9 km/h 89 % 0 mm
12:52 -7.8 °C -9.1 °C 34293.4 hPa ENE 10.3 km/h 12.9 km/h 87 % 0 mm
12:57 -7.7 °C -8.7 °C 34293.4 hPa NE 5.1 km/h 12.9 km/h 89 % 0 mm
13:02 -7.6 °C -8.8 °C 34293.4 hPa NNE 15.6 km/h 15.6 km/h 87 % 0 mm
13:07 -7.4 °C -8.7 °C 34293.4 hPa SSW 5.1 km/h 20.8 km/h 87 % 0 mm
13:12 -7.3 °C -8.8 °C 34293.4 hPa SE 7.7 km/h 20.8 km/h 85 % 0 mm
13:17 -7.3 °C -8.7 °C 34279.9 hPa ESE 7.7 km/h 20.8 km/h 85 % 0 mm
13:22 -7.2 °C -8.7 °C 34279.9 hPa ESE 12.9 km/h 12.9 km/h 84 % 0 mm
13:27 -7.2 °C -8.9 °C 34279.9 hPa ENE 5.1 km/h 15.6 km/h 82 % 0 mm
13:32 -7.1 °C -8.8 °C 34279.9 hPa East 5.1 km/h 15.6 km/h 82 % 0 mm
13:42 -7.1 °C -8.6 °C 34269.7 hPa ENE 10.3 km/h 18.2 km/h 84 % 0 mm
13:47 -6.9 °C -8.4 °C 34256.2 hPa East 7.7 km/h 20.8 km/h 84 % 0 mm
13:52 -6.6 °C -8.4 °C 34256.2 hPa ENE 15.6 km/h 20.8 km/h 82 % 0 mm
13:57 -6.7 °C -8.6 °C 34256.2 hPa SSE 5.1 km/h 23.3 km/h 81 % 0 mm
14:02 -6.6 °C -8.6 °C 34246 hPa NE 7.7 km/h 23.3 km/h 80 % 0 mm
14:07 -6.6 °C -8.6 °C 34246 hPa ENE 5.1 km/h 25.9 km/h 80 % 0 mm
14:12 -6.3 °C -8.5 °C 34235.8 hPa ESE 2.6 km/h 15.6 km/h 78 % 0 mm
14:17 -6.1 °C -8.5 °C 34235.8 hPa ENE 7.7 km/h 20.8 km/h 76 % 0 mm
14:22 -6 °C -8.8 °C 34235.8 hPa East 2.6 km/h 20.8 km/h 73 % 0 mm
14:27 -5.9 °C -8.7 °C 34235.8 hPa SW 10.3 km/h 20.8 km/h 73 % 0 mm
14:32 -5.7 °C -8.7 °C 34235.8 hPa ENE 10.3 km/h 20.8 km/h 72 % 0 mm
14:37 -5.8 °C -8.8 °C 34222.3 hPa SE 7.7 km/h 20.8 km/h 71 % 0 mm
14:42 -5.7 °C -8.4 °C 34222.3 hPa ESE 7.7 km/h 25.9 km/h 74 % 0 mm
14:47 -5.8 °C -8.9 °C 34222.3 hPa ESE 5.1 km/h 25.9 km/h 70 % 0 mm
14:52 -5.7 °C -8.2 °C 34212.1 hPa ESE 10.3 km/h 25.9 km/h 76 % 0 mm
15:02 -5.6 °C -8.7 °C 34212.1 hPa NE 5.1 km/h 23.3 km/h 71 % 0 mm
15:07 -5.4 °C -8.4 °C 34212.1 hPa NE 10.3 km/h 23.3 km/h 72 % 0 mm
15:12 -5.4 °C -8.4 °C 34212.1 hPa ESE 7.7 km/h 23.3 km/h 72 % 0 mm
15:17 -5.5 °C -8.9 °C 34198.6 hPa SSW 10.3 km/h 23.3 km/h 68 % 0 mm
15:22 -5.4 °C -9.2 °C 34198.6 hPa SE 10.3 km/h 25.9 km/h 66 % 0 mm
15:27 -5.6 °C -8.9 °C 34198.6 hPa ENE 5.1 km/h 25.9 km/h 69 % 0 mm
15:32 -5.6 °C -8.9 °C 34198.6 hPa SSW 18.2 km/h 25.9 km/h 69 % 0 mm
15:37 -5.5 °C -8.7 °C 34198.6 hPa SE 7.7 km/h 25.9 km/h 70 % 0 mm
15:42 -5.4 °C -8.8 °C 34188.4 hPa SSE 5.1 km/h 23.3 km/h 69 % 0 mm
15:47 -5.4 °C -8.7 °C 34188.4 hPa ESE 12.9 km/h 25.9 km/h 69 % 0 mm
15:57 -5.4 °C -8.6 °C 34178.3 hPa SE 2.6 km/h 25.9 km/h 70 % 0 mm
16:02 -5.4 °C -9.3 °C 34178.3 hPa South 7.7 km/h 25.9 km/h 65 % 0 mm
16:12 -5.7 °C -9.6 °C 34178.3 hPa ESE 7.7 km/h 33.6 km/h 65 % 0 mm
16:17 -5.8 °C -9.1 °C 34164.7 hPa SE 15.6 km/h 28.5 km/h 69 % 0 mm
16:22 -5.7 °C -8.9 °C 34164.7 hPa WSW 12.9 km/h 28.5 km/h 69 % 0 mm
16:27 -5.7 °C -9.3 °C 34164.7 hPa SE 18.2 km/h 28.5 km/h 67 % 0 mm
16:32 -5.7 °C -8.8 °C 34154.6 hPa SSE 2.6 km/h 28.5 km/h 70 % 0 mm
16:37 -5.7 °C -9.4 °C 34144.4 hPa ESE 18.2 km/h 31.1 km/h 66 % 0 mm
16:42 -5.7 °C -9.1 °C 34144.4 hPa SE 7.7 km/h 36.2 km/h 68 % 0 mm
16:47 -5.7 °C -8.8 °C 34144.4 hPa SSE 7.7 km/h 36.2 km/h 70 % 0 mm
16:52 -5.6 °C -8.9 °C 34144.4 hPa ESE 12.9 km/h 36.2 km/h 69 % 0 mm
16:57 -5.7 °C -9.1 °C 34130.9 hPa SSE 5.1 km/h 25.9 km/h 68 % 0 mm
17:02 -5.7 °C -9.2 °C 34130.9 hPa SE 5.1 km/h 25.9 km/h 68 % 0 mm
17:07 -5.8 °C -9.4 °C 34120.7 hPa SE 15.6 km/h 25.9 km/h 67 % 0 mm
17:12 -5.9 °C -9.5 °C 34120.7 hPa ESE 7.7 km/h 33.6 km/h 67 % 0 mm
17:17 -6 °C -9.8 °C 34107.2 hPa ESE 12.9 km/h 36.2 km/h 65 % 0 mm
17:22 -6.1 °C -9.8 °C 34120.7 hPa SSE 5.1 km/h 36.2 km/h 66 % 0 mm
17:32 -6.9 °C -9.2 °C 34164.7 hPa West 51.8 km/h 51.8 km/h 77 % 0 mm
17:37 -7.9 °C -9.6 °C 34178.3 hPa West 31.1 km/h 62.1 km/h 83 % 0 mm
17:42 -8.9 °C -10.1 °C 34178.3 hPa West 23.3 km/h 85.5 km/h 87 % 76.2 mm
17:47 -9.3 °C -10.2 °C 34188.4 hPa West 23.3 km/h 85.5 km/h 90 % 96.52 mm
17:57 -9.7 °C -10.6 °C 34198.6 hPa West 23.3 km/h 44.1 km/h 91 % 129.54 mm
18:02 -9.8 °C -10.6 °C 34198.6 hPa WNW 31.1 km/h 44.1 km/h 91 % 134.62 mm
18:07 -9.9 °C -10.7 °C 34198.6 hPa West 28.5 km/h 44.1 km/h 91 % 134.62 mm
18:22 -10.2 °C -10.9 °C 34222.3 hPa WNW 18.2 km/h 51.8 km/h 91 % 142.24 mm
18:32 -10.2 °C -11 °C 34222.3 hPa West 28.5 km/h 49.2 km/h 91 % 142.24 mm
18:42 -10.2 °C -11.1 °C 34212.1 hPa West 20.8 km/h 44.1 km/h 90 % 142.24 mm
18:47 -10.2 °C -11.1 °C 34212.1 hPa WNW 12.9 km/h 46.7 km/h 90 % 45.72 mm
18:52 -10.2 °C -11.2 °C 34222.3 hPa NW 12.9 km/h 46.7 km/h 89 % 33.02 mm
18:57 -10.3 °C -11.2 °C 34235.8 hPa WNW 7.7 km/h 46.7 km/h 90 % 12.7 mm
19:02 -10.3 °C -11.2 °C 34235.8 hPa WNW 12.9 km/h 46.7 km/h 90 % 7.62 mm
19:07 -10.3 °C -11.2 °C 34235.8 hPa West 18.2 km/h 49.2 km/h 90 % 7.62 mm
19:12 -10.3 °C -11.2 °C 34246 hPa SW 10.3 km/h 38.8 km/h 90 % 0 mm
19:17 -10.3 °C -11.2 °C 34246 hPa West 15.6 km/h 38.8 km/h 90 % 0 mm
19:22 -10.3 °C -11.2 °C 34246 hPa WNW 2.6 km/h 38.8 km/h 90 % 0 mm
19:27 -10.4 °C -11.3 °C 34256.2 hPa NW 15.6 km/h 28.5 km/h 90 % 0 mm
19:37 -10.4 °C -11.4 °C 34269.7 hPa WSW 28.5 km/h 33.6 km/h 89 % 0 mm
19:42 -10.6 °C -11.6 °C 34269.7 hPa West 15.6 km/h 44.1 km/h 89 % 0 mm
19:47 -10.6 °C -11.7 °C 34279.9 hPa WNW 20.8 km/h 44.1 km/h 88 % 0 mm
19:57 -10.8 °C -11.8 °C 34279.9 hPa WSW 10.3 km/h 38.8 km/h 88 % 0 mm
20:02 -10.8 °C -11.8 °C 34293.4 hPa WNW 18.2 km/h 38.8 km/h 88 % 0 mm
20:12 -10.9 °C -11.9 °C 34293.4 hPa West 7.7 km/h 25.9 km/h 89 % 7.62 mm
20:22 -10.9 °C -11.8 °C 34293.4 hPa WNW 15.6 km/h 23.3 km/h 90 % 12.7 mm
20:27 -11.1 °C -11.9 °C 34293.4 hPa WNW 15.6 km/h 36.2 km/h 90 % 12.7 mm
20:32 -11.1 °C -12.1 °C 34303.6 hPa WSW 15.6 km/h 36.2 km/h 89 % 12.7 mm
20:37 -11.2 °C -12.2 °C 34313.7 hPa WSW 20.8 km/h 36.2 km/h 89 % 12.7 mm
20:47 -11.2 °C -12.2 °C 34313.7 hPa West 25.9 km/h 33.6 km/h 89 % 20.32 mm
20:52 -11.3 °C -12.2 °C 34313.7 hPa WNW 25.9 km/h 33.6 km/h 90 % 20.32 mm
20:57 -11.4 °C -12.2 °C 34313.7 hPa WNW 10.3 km/h 33.6 km/h 91 % 25.4 mm
21:02 -11.5 °C -12.2 °C 34313.7 hPa West 5.1 km/h 33.6 km/h 92 % 25.4 mm
21:07 -11.5 °C -12.1 °C 34313.7 hPa SW 12.9 km/h 28.5 km/h 93 % 25.4 mm
21:12 -11.6 °C -12.2 °C 34313.7 hPa West 20.8 km/h 25.9 km/h 93 % 20.32 mm
21:17 -11.5 °C -12.2 °C 34313.7 hPa West 7.7 km/h 41.4 km/h 92 % 20.32 mm
21:22 -11.5 °C -12.2 °C 34327.3 hPa West 12.9 km/h 41.4 km/h 92 % 12.7 mm
21:27 -11.5 °C -12.2 °C 34327.3 hPa SW 5.1 km/h 41.4 km/h 92 % 12.7 mm
21:32 -11.4 °C -12.1 °C 34327.3 hPa WSW 10.3 km/h 41.4 km/h 93 % 12.7 mm
21:37 -11.4 °C -12.1 °C 34337.4 hPa SW 12.9 km/h 23.3 km/h 93 % 12.7 mm
21:42 -11.4 °C -12.1 °C 34337.4 hPa WSW 12.9 km/h 25.9 km/h 93 % 12.7 mm
21:47 -11.4 °C -12.1 °C 34337.4 hPa WSW 15.6 km/h 28.5 km/h 93 % 12.7 mm
21:52 -11.4 °C -12.1 °C 34347.6 hPa WSW 18.2 km/h 31.1 km/h 93 % 12.7 mm
21:57 -11.5 °C -12.1 °C 34347.6 hPa WNW 15.6 km/h 31.1 km/h 93 % 12.7 mm
22:02 -11.6 °C -12.2 °C 34347.6 hPa WSW 23.3 km/h 31.1 km/h 93 % 20.32 mm
22:12 -11.7 °C -12.3 °C 34361.1 hPa West 12.9 km/h 33.6 km/h 93 % 20.32 mm
22:17 -11.7 °C -12.3 °C 34361.1 hPa SW 5.1 km/h 33.6 km/h 93 % 25.4 mm
22:22 -11.7 °C -12.3 °C 34361.1 hPa WSW 10.3 km/h 38.8 km/h 93 % 25.4 mm
22:27 -11.7 °C -12.3 °C 34371.3 hPa WSW 15.6 km/h 38.8 km/h 93 % 33.02 mm
22:32 -11.7 °C -12.3 °C 34361.1 hPa SW 15.6 km/h 38.8 km/h 93 % 38.1 mm
22:37 -11.7 °C -12.3 °C 34361.1 hPa WSW 23.3 km/h 33.6 km/h 93 % 38.1 mm
22:42 -11.7 °C -12.3 °C 34361.1 hPa West 18.2 km/h 41.4 km/h 93 % 45.72 mm
22:52 -11.7 °C -12.2 °C 34371.3 hPa WSW 15.6 km/h 41.4 km/h 94 % 45.72 mm
23:02 -11.8 °C -12.4 °C 34384.8 hPa South 10.3 km/h 31.1 km/h 93 % 38.1 mm
23:07 -11.8 °C -12.4 °C 34384.8 hPa SW 25.9 km/h 33.6 km/h 93 % 38.1 mm
23:12 -11.9 °C -12.4 °C 34384.8 hPa SSW 10.3 km/h 36.2 km/h 94 % 33.02 mm
23:17 -11.9 °C -12.4 °C 34371.3 hPa West 15.6 km/h 36.2 km/h 94 % 38.1 mm
23:22 -11.9 °C -12.4 °C 34384.8 hPa SW 18.2 km/h 36.2 km/h 94 % 33.02 mm
23:27 -11.9 °C -12.4 °C 34384.8 hPa SW 10.3 km/h 28.5 km/h 94 % 25.4 mm
23:32 -11.9 °C -12.4 °C 34384.8 hPa SSW 15.6 km/h 28.5 km/h 94 % 33.02 mm
23:37 -11.9 °C -12.4 °C 34384.8 hPa SW 38.8 km/h 38.8 km/h 94 % 25.4 mm
23:42 -12 °C -12.5 °C 34384.8 hPa SW 12.9 km/h 38.8 km/h 94 % 20.32 mm
23:47 -12 °C -12.5 °C 34384.8 hPa WSW 7.7 km/h 38.8 km/h 94 % 25.4 mm
23:52 -12 °C -12.5 °C 34384.8 hPa West 25.9 km/h 38.8 km/h 94 % 20.32 mm
23:57 -12 °C -12.5 °C 34371.3 hPa WSW 20.8 km/h 38.8 km/h 94 % 25.4 mm
Meteo18
Compliments of Weather Underground - 4 mb

Script developed by  Jim McMurry - jmcmurry@mwt.net Adapted for the template by  Wim van der Kuil - Leuven-Template.eu

You find our weather info also at:

European Weather Network

Weather Underground

Equipment we use:

Weather-station
Davis Vue

Weather-program
Meteobridge

Weather-server
Raspberry PI 2 B+

Provider
1 and 1

Davis Vue

Meteobridge

Raspberry PI 2 B+

1 and 1